Location: Kumla
(59.1265°N, 15.1401°E)
Time: 21:14:39
(UTC+01:00)

Vanguard 2 Rocket - Pass Details

Date: 04 December 2023
Orbit: 554 x 3309 km, 32.9° (Epoch: 28 February)

Event Time Altitude Azimuth Distance (km) Brightness Sun altitude
Rises 13:11:42 0° 190° (S) 6,526 13.6 6.9°
Reaches altitude 10° 13:18:31 10° 173° (S) 5,911 12.3 6.6°
Maximum altitude 13:27:59 16° 142° (SE) 5,680 11.4 6.1°
Drops below altitude 10° 13:37:51 10° 112° (ESE) 6,230 11.2 5.6°
Sets 13:45:19 0° 95° (E) 7,046 11.2 5.2°
